1489618801.13,3712,9.81,73328.8,-11.69,-12.15,-12.43,0,*5B
1489618802.37,3713,9.81,73312.8,-11.69,-12.15,-12.43,0,*5A
1489618803.61,3714,9.81,73362.5,-11.69,-12.15,-12.43,0,*5D
1489618804.85,3715,9.81,73332.0,-11.69,-12.11,-12.39,0,*55
1489618806.09,3716,9.81,73318.5,-11.69,-12.15,-12.39,0,*52
1489618807.32,3717,9.81,73296.0,-11.69,-12.15,-12.25,0,*5E
1489618808.59,3718,9.81,73368.0,-11.67,-12.11,-12.21,0,*5F
1489618809.85,3719,9.81,73360.0,-11.65,-12.07,-12.11,0,*58
1489618811.14,3720,9.81,73332.5,-11.67,-12.07,-12.07,0,*57
1489618812.4,3721,9.81,73324.8,-11.67,-12.07,-12.21,0,*52
1489618813.67,3722,9.81,73320.0,-11.67,-12.07,-12.25,0,*55
1489618814.95,3723,9.81,73320.8,-11.67,-12.07,-12.11,0,*53
1489618816.22,3724,9.81,73382.3,-11.65,-12.07,-12.11,0,*56
1489618817.51,3725,9.81,73366.3,-11.67,-12.07,-12.07,0,*52
1489618818.79,3726,9.81,73332.5,-11.67,-12.11,-12.11,0,*51
1489618820.08,3727,9.81,73352.3,-11.67,-12.07,-12.11,0,*57
1489618821.32,3728,9.81,73348.8,-11.65,-12.07,-12.21,0,*59
1489618822.59,3729,9.81,73338.8,-11.67,-12.07,-12.21,0,*5A
1489618823.88,3730,9.81,73350.8,-11.67,-12.07,-12.11,0,*51
1489618825.14,3731,9.81,73362.0,-11.65,-11.97,-12.07,0,*5F
1489618826.43,3732,9.81,73352.0,-11.67,-12.07,-12.07,0,*54
1489618827.69,3733,9.81,73368.0,-11.65,-12.07,-12.11,0,*50
1489618828.95,3734,9.81,73356.8,-11.65,-11.97,-12.11,0,*5D
1489618830.21,3735,9.81,73366.0,-11.65,-11.97,-12.07,0,*5B
1489618831.5,3736,9.81,73362.0,-11.67,-11.97,-12.11,0,*5D
1489618832.76,3737,9.81,73364.0,-11.65,-12.07,-12.07,0,*53
1489618834.0,3738,9.81,73356.5,-11.65,-11.97,-12.25,0,*56
1489618835.24,3739,9.81,73358.3,-11.65,-12.07,-12.25,0,*5D
1489618836.47,3740,9.81,73366.0,-11.65,-12.07,-12.25,0,*53
1489618837.71,3741,9.81,73352.0,-11.65,-11.97,-12.21,0,*5C
1489618838.95,3742,9.81,73346.0,-11.65,-12.07,-12.21,0,*55
1489618840.19,3743,9.81,73354.0,-11.65,-12.07,-12.21,0,*54
1489618841.46,3744,9.81,73342.8,-11.67,-12.11,-12.25,0,*52
1489618842.7,3745,9.81,73346.0,-11.65,-12.07,-12.21,0,*52
1489618843.93,3746,9.81,73340.5,-11.65,-12.07,-12.25,0,*55
1489618845.17,3747,9.81,73358.0,-11.65,-12.07,-12.47,0,*50
1489618846.41,3748,9.81,73348.0,-11.65,-12.11,-12.47,0,*58
1489618847.63,3749,9.81,73352.8,-11.65,-12.21,-12.39,0,*53
1489618848.87,3750,9.81,73348.8,-11.65,-12.11,-12.25,0,*55
1489618850.13,3751,9.81,73354.3,-11.59,-11.97,-12.25,0,*56
1489618851.39,3752,9.81,73348.3,-11.65,-12.11,-12.53,0,*56
1489618852.64,3753,9.81,73344.8,-11.65,-12.21,-12.53,0,*54
1489618853.87,3754,9.81,73348.5,-11.65,-12.25,-12.57,0,*53
1489618855.12,3755,9.81,73360.8,-11.65,-12.25,-12.79,0,*5E
1489618856.36,3756,9.81,73350.0,-11.65,-12.25,-12.83,0,*58
1489618857.6,3757,9.81,73350.8,-11.61,-12.29,-12.79,0,*54
1489618858.81,3758,9.81,73348.8,-11.61,-12.29,-12.89,0,*54
1489618860.07,3759,9.81,73350.8,-11.61,-12.35,-12.79,0,*57
1489618861.31,3760,9.81,73342.3,-11.61,-12.35,-12.89,0,*52
1489618862.57,3761,9.81,73340.5,-11.65,-12.35,-12.79,0,*58
1489618863.84,3762,9.81,73340.3,-11.65,-12.35,-12.83,0,*5E
1489618865.08,3763,9.81,73342.8,-11.61,-12.21,-12.79,0,*5B
1489618866.32,3764,9.81,73346.5,-11.61,-12.35,-12.89,0,*56
1489618867.58,3765,9.81,73340.8,-11.67,-12.35,-12.97,0,*5E
1489618868.8,3766,9.81,73328.5,-11.61,-12.43,-13.01,0,*54
1489618870.02,3767,9.81,73336.0,-11.65,-12.47,-12.97,0,*5B
1489618871.26,3768,9.81,73340.5,-11.65,-12.47,-12.79,0,*54
1489618872.47,3769,9.81,73362.8,-11.65,-12.47,-13.11,0,*5A
1489618873.71,3770,9.81,73356.5,-11.65,-12.53,-13.19,0,*5F
1489618874.96,3771,9.81,73358.3,-11.65,-12.53,-13.19,0,*5E
1489618876.22,3772,9.81,73340.5,-11.67,-12.57,-13.19,0,*5B
1489618877.46,3773,9.81,73300.8,-11.65,-12.57,-13.11,0,*50
1489618878.72,3774,9.81,73314.0,-11.67,-12.57,-13.11,0,*55
1489618879.98,3775,9.81,73316.8,-11.67,-12.57,-12.97,0,*5B
1489618881.21,3776,9.81,73324.8,-11.65,-12.57,-13.07,0,*52
1489618882.44,3777,9.81,73310.3,-11.65,-12.57,-13.07,0,*53
1489618883.71,3778,9.81,73320.0,-11.67,-12.57,-12.97,0,*56
1489618884.97,3779,9.81,73326.8,-11.65,-12.53,-12.83,0,*54
1489618886.23,3780,9.81,73346.3,-11.67,-12.53,-12.93,0,*51
1489618887.52,3781,9.81,73334.3,-11.67,-12.53,-12.83,0,*51
1489618888.76,3782,9.81,73300.3,-11.65,-12.47,-12.65,0,*5D
1489618889.99,3783,9.81,73340.3,-11.65,-12.47,-12.65,0,*5C
1489618891.25,3784,9.81,73364.5,-11.67,-12.47,-12.79,0,*54
1489618892.51,3785,9.81,73354.0,-11.67,-12.47,-12.65,0,*58
1489618893.77,3786,9.81,73350.0,-11.67,-12.39,-12.57,0,*53
1489618895.0,3787,9.81,73348.0,-11.67,-12.39,-12.47,0,*53
1489618896.29,3788,9.81,73344.5,-11.67,-12.35,-12.53,0,*55
1489618897.58,3789,9.81,73338.8,-11.67,-12.35,-12.53,0,*54
1489618898.87,3790,9.81,73336.5,-11.67,-12.35,-12.53,0,*5C
1489618900.16,3791,9.81,73342.0,-11.67,-12.35,-12.53,0,*5D
1489618901.4,3792,9.81,73350.0,-11.67,-12.25,-12.47,0,*5A
1489618902.66,3793,9.81,73318.3,-11.67,-12.35,-12.39,0,*53
1489618903.95,3794,9.81,73340.5,-11.67,-12.35,-12.35,0,*58
1489618905.22,3795,9.81,73342.8,-11.67,-12.25,-12.53,0,*58
1489618906.5,3796,9.81,73316.8,-11.67,-12.35,-12.57,0,*5E
1489618907.79,3797,9.81,73296.5,-11.67,-12.35,-12.53,0,*5B
1489618909.05,3798,9.81,73312.5,-11.67,-12.35,-12.47,0,*51
1489618910.32,3799,9.81,73334.8,-11.67,-12.35,-12.39,0,*59
1489618911.58,3800,9.81,73346.0,-11.65,-12.35,-12.53,0,*58
1489618912.82,3801,9.81,73346.3,-11.65,-12.25,-12.57,0,*5C
1489618914.11,3802,9.81,73332.5,-11.67,-12.35,-12.83,0,*55
1489618915.37,3803,9.81,73356.3,-11.67,-12.39,-12.71,0,*55
1489618916.63,3804,9.81,73330.3,-11.65,-12.35,-12.65,0,*59
1489618917.89,3805,9.81,73346.3,-11.67,-12.39,-12.57,0,*57
1489618919.17,3806,9.81,73356.3,-11.67,-12.35,-12.57,0,*58
1489618920.43,3807,9.81,73322.3,-11.67,-12.39,-12.53,0,*51
1489618921.69,3808,9.81,73322.3,-11.67,-12.39,-12.53,0,*5E
1489618922.96,3809,9.81,73338.3,-11.67,-12.35,-12.47,0,*56
1489618924.17,3810,9.81,73328.3,-11.65,-12.21,-12.39,0,*50
1489618925.42,3811,9.81,73344.8,-11.67,-12.21,-12.39,0,*53
1489618926.67,3812,9.81,73326.0,-11.65,-12.21,-12.35,0,*5E
1489618927.9,3813,9.81,73334.5,-11.67,-12.25,-12.25,0,*58
1489618929.15,3814,9.81,73348.0,-11.67,-12.21,-12.25,0,*5B
1489618930.39,3815,9.81,73354.0,-11.65,-12.25,-12.53,0,*5D
1489618931.63,3816,9.81,73356.0,-11.65,-12.21,-12.53,0,*5A
1489618932.85,3817,9.81,73338.0,-11.65,-12.21,-12.39,0,*57
1489618934.07,3818,9.81,73336.3,-11.65,-12.21,-12.21,0,*51
1489618935.31,3819,9.81,73356.8,-11.65,-12.11,-12.25,0,*57
1489618936.55,3820,9.81,73332.3,-11.65,-12.11,-12.21,0,*59
1489618937.81,3821,9.81,73300.0,-11.65,-12.11,-12.11,0,*5B
1489618939.1,3822,9.81,73326.5,-11.67,-12.11,-12.07,0,*5D
1489618940.37,3823,9.81,73352.3,-11.67,-12.21,-12.11,0,*58
1489618941.63,3824,9.81,73362.5,-11.65,-12.11,-12.11,0,*5E
1489618942.87,3825,9.81,73344.3,-11.65,-12.11,-12.21,0,*5C
1489618944.11,3826,9.81,73342.5,-11.65,-12.11,-12.25,0,*5B
1489618945.33,3827,9.81,73342.0,-11.65,-12.21,-12.39,0,*54
1489618946.57,3828,9.81,73346.8,-11.65,-12.11,-12.47,0,*51
1489618947.83,3829,9.81,73358.0,-11.65,-12.11,-12.53,0,*55
1489618949.08,3830,9.81,73358.3,-11.65,-12.25,-12.71,0,*5A
1489618950.31,3831,9.81,73346.3,-11.61,-12.15,-12.43,0,*5D
1489618951.53,3832,9.81,73348.8,-11.61,-12.21,-12.29,0,*55
1489618952.77,3833,9.81,73348.3,-11.61,-12.15,-12.43,0,*5F
1489618954.0,3834,9.81,73350.0,-11.61,-12.21,-12.61,0,*5F
1489618955.26,3835,9.81,73326.8,-11.61,-12.15,-12.65,0,*5D
1489618956.5,3836,9.81,73326.8,-11.61,-12.21,-12.65,0,*59
1489618957.74,3837,9.81,73322.0,-11.61,-12.21,-12.53,0,*5D
1489618958.97,3838,9.81,73322.8,-11.61,-12.15,-12.43,0,*54
1489618960.19,3839,9.81,73336.8,-11.61,-12.21,-12.47,0,*56
1489618961.4,3840,9.81,73334.8,-11.61,-12.21,-12.43,0,*5C
1489618962.67,3841,9.81,73342.3,-11.59,-12.11,-12.29,0,*59
1489618963.93,3842,9.81,73336.0,-11.59,-12.11,-12.43,0,*56
1489618965.14,3843,9.81,73348.3,-11.61,-12.21,-12.47,0,*5B
1489618966.39,3844,9.81,73322.8,-11.61,-12.21,-12.53,0,*59
1489618967.63,3845,9.81,73338.5,-11.61,-12.21,-12.61,0,*59
1489618968.86,3846,9.81,73346.0,-11.61,-12.21,-12.61,0,*5A
1489618970.15,3847,9.81,73348.0,-11.59,-12.15,-12.61,0,*57
1489618971.44,3848,9.81,73324.5,-11.59,-12.11,-12.57,0,*59
1489618972.68,3849,9.81,73340.8,-11.61,-12.21,-12.53,0,*54
1489618973.89,3850,9.81,73344.0,-11.61,-12.29,-12.43,0,*55
1489618975.11,3851,9.81,73330.8,-11.61,-12.21,-12.43,0,*5C
1489618976.37,3852,9.81,73350.8,-11.59,-12.15,-12.29,0,*5F
1489618977.66,3853,9.81,73344.5,-11.59,-12.15,-12.35,0,*53
1489618978.92,3854,9.81,73308.0,-11.59,-12.11,-12.29,0,*5D
1489618980.19,3855,9.81,73318.0,-11.59,-12.11,-12.29,0,*5C
1489618981.45,3856,9.81,73318.8,-11.61,-12.15,-12.35,0,*5D
1489618982.73,3857,9.81,73320.5,-11.59,-12.11,-12.15,0,*51
1489618984.0,3858,9.81,73352.0,-11.61,-12.15,-12.35,0,*53
1489618985.25,3859,9.81,73342.0,-11.61,-12.15,-12.61,0,*53
1489618986.54,3860,9.81,73336.5,-11.59,-12.15,-12.61,0,*52
1489618987.78,3861,9.81,73346.0,-11.61,-12.21,-12.79,0,*56
1489618989.04,3862,9.81,73358.0,-11.59,-12.25,-12.83,0,*5F
1489618990.28,3863,9.81,73362.8,-11.59,-12.25,-12.89,0,*54
1489618991.52,3864,9.81,73366.0,-11.61,-12.29,-13.01,0,*55
1489618992.75,3865,9.81,73378.5,-11.61,-12.35,-12.93,0,*53
1489618993.99,3866,9.81,73380.5,-11.59,-12.39,-12.97,0,*53
1489618995.19,3867,9.81,73382.0,-11.61,-12.43,-13.07,0,*5C
1489618996.39,3868,9.81,73376.0,-11.61,-12.47,-13.15,0,*54
1489618997.6,3869,9.81,73376.3,-11.61,-12.47,-13.07,0,*56
1489618998.8,3870,9.81,73374.0,-11.61,-12.47,-13.15,0,*5D
1489619000.01,3871,9.81,73380.8,-11.61,-12.47,-13.15,0,*5C
1489619001.21,3872,9.81,73372.0,-11.61,-12.47,-13.15,0,*5F
1489619002.44,3873,9.81,73366.3,-11.59,-12.47,-13.11,0,*51
1489619003.67,3874,9.81,73364.5,-11.61,-12.61,-13.15,0,*5D
1489619004.91,3875,9.81,73370.3,-11.61,-12.53,-12.89,0,*59
1489619006.17,3876,9.81,73366.0,-11.61,-12.53,-12.65,0,*58
1489619007.43,3877,9.81,73328.5,-11.65,-12.53,-12.57,0,*5C
1489619008.67,3878,9.81,73358.0,-11.61,-12.47,-12.53,0,*56
1489619009.9,3879,9.81,73354.0,-11.61,-12.43,-12.61,0,*52
1489619011.13,3880,9.81,73366.8,-11.61,-12.43,-12.53,0,*55
1489619012.36,3881,9.81,73364.8,-11.61,-12.43,-12.53,0,*54
1489619013.6,3882,9.81,73364.3,-11.65,-12.39,-12.53,0,*5E
1489619014.84,3883,9.81,73358.5,-11.65,-12.39,-12.53,0,*5F
1489619016.1,3884,9.81,73368.0,-11.65,-12.35,-12.53,0,*54
1489619017.36,3885,9.81,73354.5,-11.65,-12.35,-12.57,0,*51
1489619018.59,3886,9.81,73354.3,-11.65,-12.39,-12.57,0,*5E
1489619019.83,3887,9.81,73358.0,-11.61,-12.35,-12.47,0,*56
1489619021.04,3888,9.81,73364.0,-11.61,-12.29,-12.47,0,*54
1489619022.3,3889,9.81,73362.0,-11.61,-12.35,-12.65,0,*58
1489619023.56,3890,9.81,73368.3,-11.61,-12.35,-12.61,0,*54
1489619024.81,3891,9.81,73372.0,-11.61,-12.35,-12.65,0,*51
1489619026.05,3892,9.81,73360.5,-11.65,-12.39,-12.57,0,*5B
1489619027.31,3893,9.81,73336.3,-11.61,-12.35,-12.53,0,*56
1489619028.52,3894,9.81,73342.3,-11.61,-12.29,-12.47,0,*59
1489619029.73,3895,9.81,73350.8,-11.61,-12.29,-12.47,0,*58
1489619030.97,3896,9.81,73366.8,-11.61,-12.29,-12.53,0,*5E
1489619032.21,3897,9.81,73348.3,-11.61,-12.29,-12.53,0,*5F
1489619033.45,3898,9.81,73346.5,-11.59,-12.25,-12.47,0,*52
1489619034.69,3899,9.81,73342.8,-11.59,-12.25,-12.39,0,*5A
1489619035.93,3900,9.81,73346.3,-11.61,-12.29,-12.35,0,*50
1489619037.14,3901,9.81,73348.3,-11.61,-12.29,-12.47,0,*54
1489619038.36,3902,9.81,73350.3,-11.61,-12.29,-12.43,0,*53
1489619039.6,3903,9.81,73336.3,-11.61,-12.29,-12.35,0,*53
1489619040.84,3904,9.81,73344.5,-11.61,-12.29,-12.35,0,*54
1489619042.08,3905,9.81,73350.0,-11.61,-12.21,-12.35,0,*5D
1489619043.32,3906,9.81,73354.0,-11.59,-12.25,-12.43,0,*50
1489619044.54,3907,9.81,73344.0,-11.61,-12.21,-12.47,0,*5A
1489619045.75,3908,9.81,73348.5,-11.61,-12.21,-12.43,0,*51
1489619046.99,3909,9.81,73344.5,-11.61,-12.15,-12.43,0,*57
1489619048.2,3910,9.81,73348.3,-11.61,-12.21,-12.29,0,*54
1489619049.44,3911,9.81,73364.5,-11.61,-12.15,-12.29,0,*52
1489619050.66,3912,9.81,73362.8,-11.61,-12.21,-12.29,0,*56
1489619051.9,3913,9.81,73354.8,-11.61,-12.15,-12.21,0,*58
1489619053.13,3914,9.81,73368.3,-11.61,-12.15,-12.21,0,*5F
1489619054.4,3915,9.81,73362.8,-11.59,-12.11,-12.29,0,*59
1489619055.66,3916,9.81,73350.3,-11.59,-12.11,-12.29,0,*5A
1489619056.9,3917,9.81,73358.0,-11.61,-12.15,-12.29,0,*54
1489619058.14,3918,9.81,73370.8,-11.61,-12.21,-12.35,0,*51
1489619059.4,3919,9.81,73356.8,-11.59,-12.15,-12.25,0,*5D
1489619060.63,3920,9.81,73354.8,-11.59,-12.03,-12.25,0,*50
1489619061.87,3921,9.81,73364.8,-11.59,-12.03,-12.25,0,*51
1489619063.1,3922,9.81,73340.0,-11.59,-12.03,-12.25,0,*52
1489619064.36,3923,9.81,73350.5,-11.61,-12.07,-12.35,0,*5D
1489619065.6,3924,9.81,73368.3,-11.59,-12.03,-12.39,0,*59
1489619066.86,3925,9.81,73348.3,-11.59,-12.11,-12.29,0,*5A
1489619068.14,3926,9.81,73334.3,-11.59,-12.11,-12.15,0,*56
1489619069.4,3927,9.81,73342.5,-11.59,-12.15,-12.25,0,*50
1489619070.69,3928,9.81,73338.5,-11.59,-12.11,-12.15,0,*58
1489619071.97,3929,9.81,73340.0,-11.59,-12.11,-12.11,0,*5D
1489619073.26,3930,9.81,73348.0,-11.59,-12.11,-12.15,0,*51
1489619074.54,3931,9.81,73352.8,-11.59,-12.11,-12.15,0,*50
1489619075.8,3932,9.81,73350.3,-11.59,-12.03,-12.15,0,*50
1489619077.03,3933,9.81,73356.0,-11.59,-12.03,-12.39,0,*5F
1489619078.3,3934,9.81,73358.0,-11.59,-12.11,-12.29,0,*5A
1489619079.56,3935,9.81,73358.8,-11.59,-12.11,-12.43,0,*57
1489619080.82,3936,9.81,73358.8,-11.59,-12.15,-12.47,0,*54
1489619082.08,3937,9.81,73348.8,-11.59,-12.11,-12.47,0,*51
1489619083.32,3938,9.81,73350.3,-11.59,-12.25,-12.47,0,*59
1489619084.58,3939,9.81,73342.8,-11.59,-12.15,-12.47,0,*5B
1489619085.82,3940,9.81,73346.8,-11.59,-12.25,-12.47,0,*56
1489619087.03,3941,9.81,73338.5,-11.57,-12.25,-12.47,0,*59
1489619088.27,3942,9.81,73340.0,-11.57,-12.29,-12.57,0,*57
1489619089.48,3943,9.81,73346.0,-11.57,-12.25,-12.47,0,*5B
1489619090.69,3944,9.81,73354.3,-11.57,-12.29,-12.47,0,*50
1489619091.92,3945,9.81,73344.0,-11.57,-12.25,-12.57,0,*5C
1489619093.16,3946,9.81,73354.8,-11.59,-12.29,-12.47,0,*5C
1489619094.43,3947,9.81,73354.0,-11.59,-12.25,-12.57,0,*50
1489619095.69,3948,9.81,73350.5,-11.59,-12.29,-12.61,0,*56
1489619096.95,3949,9.81,73354.8,-11.59,-12.29,-12.83,0,*5B
1489619098.21,3950,9.81,73354.5,-11.59,-12.39,-12.83,0,*52
1489619099.44,3951,9.81,73352.8,-11.59,-12.39,-12.89,0,*59
1489619100.7,3952,9.81,73344.3,-11.59,-12.43,-12.61,0,*51
1489619101.96,3953,9.81,73334.5,-11.59,-12.43,-12.61,0,*50
1489619103.21,3954,9.81,73330.8,-11.59,-12.43,-12.57,0,*52
1489619104.44,3955,9.81,73330.3,-11.59,-12.39,-12.47,0,*5F
1489619105.68,3956,9.81,73324.5,-11.59,-12.25,-12.47,0,*51
1489619106.9,3957,9.81,73330.3,-11.57,-12.25,-12.43,0,*5A
1489619108.11,3958,9.81,73350.3,-11.57,-12.29,-12.43,0,*59
1489619109.35,3959,9.81,73352.0,-11.59,-12.29,-12.43,0,*56
1489619110.61,3960,9.81,73360.0,-11.59,-12.15,-12.43,0,*53
1489619111.87,3961,9.81,73358.0,-11.59,-12.25,-12.57,0,*54
1489619113.11,3962,9.81,73356.0,-11.59,-12.25,-12.47,0,*56
1489619114.35,3963,9.81,73358.8,-11.59,-12.29,-12.47,0,*5B
1489619115.59,3964,9.81,73356.8,-11.59,-12.29,-12.47,0,*5C
1489619116.83,3965,9.81,73352.5,-11.59,-12.25,-12.47,0,*51
1489619118.09,3966,9.81,73358.8,-11.59,-12.29,-12.57,0,*5F
1489619119.33,3967,9.81,73354.5,-11.59,-12.29,-12.47,0,*5F
1489619120.57,3968,9.81,73352.8,-11.59,-12.29,-12.39,0,*59
1489619121.78,3969,9.81,73358.5,-11.57,-12.25,-12.39,0,*5A
1489619123.01,3970,9.81,73352.5,-11.57,-12.11,-12.39,0,*55
1489619124.27,3971,9.81,73356.5,-11.59,-12.15,-12.39,0,*5E
1489619125.51,3972,9.81,73358.3,-11.57,-12.11,-12.39,0,*57
1489619126.77,3973,9.81,73356.3,-11.59,-12.15,-12.39,0,*5C
1489619128.03,3974,9.81,73362.0,-11.59,-12.15,-12.39,0,*5B
1489619129.29,3975,9.81,73354.3,-11.59,-12.15,-12.25,0,*57
1489619130.58,3976,9.81,73342.0,-11.59,-12.11,-12.15,0,*53
1489619131.86,3977,9.81,73358.5,-11.59,-12.11,-12.15,0,*52
1489619133.14,3978,9.81,73356.0,-11.59,-11.97,-12.15,0,*50
1489619134.38,3979,9.81,73348.5,-11.59,-12.03,-12.47,0,*58
1489619135.64,3980,9.81,73350.5,-11.59,-12.11,-12.43,0,*59
1489619136.9,3981,9.81,73354.0,-11.59,-12.15,-12.43,0,*5C
1489619138.16,3982,9.81,73360.5,-11.55,-12.11,-12.39,0,*5A
1489619139.4,3983,9.81,73364.5,-11.57,-12.15,-12.47,0,*54
1489619140.63,3984,9.81,73348.8,-11.57,-12.15,-12.47,0,*53
1489619141.86,3985,9.81,73368.0,-11.57,-12.15,-12.43,0,*56
1489619143.1,3986,9.81,73346.8,-11.57,-12.15,-12.29,0,*59
1489619144.33,3987,9.81,73358.5,-11.57,-12.15,-12.43,0,*54
1489619145.57,3988,9.81,73366.0,-11.57,-12.15,-12.43,0,*5B
1489619146.8,3989,9.81,73362.5,-11.57,-12.15,-12.47,0,*5E
1489619148.04,3990,9.81,73360.8,-11.57,-12.15,-12.39,0,*5F
1489619149.27,3991,9.81,73366.0,-11.57,-12.15,-12.43,0,*53
1489619150.53,3992,9.81,73370.8,-11.57,-12.15,-12.57,0,*55
1489619151.76,3993,9.81,73364.5,-11.57,-12.25,-12.61,0,*52
1489619153.03,3994,9.81,73366.0,-11.55,-12.21,-12.65,0,*57
1489619154.31,3995,9.81,73370.5,-11.55,-12.35,-12.65,0,*53
1489619155.52,3996,9.81,73376.5,-11.57,-12.25,-12.47,0,*53
1489619156.79,3997,9.81,73370.3,-11.55,-12.25,-12.35,0,*55
1489619158.02,3998,9.81,73368.5,-11.59,-12.39,-12.43,0,*5A
1489619159.26,3999,9.81,73374.8,-11.59,-12.29,-12.43,0,*5A
1489619160.5,4000,9.81,73358.5,-11.59,-12.29,-12.29,0,*58
1489619161.71,4001,9.81,73358.3,-11.57,-12.25,-12.25,0,*57
1489619162.93,4002,9.81,73348.5,-11.57,-12.21,-12.21,0,*54
1489619164.19,4003,9.81,73354.3,-11.57,-12.15,-12.15,0,*55
1489619165.44,4004,9.81,73352.8,-11.57,-12.15,-12.15,0,*52
1489619166.73,4005,9.81,73358.3,-11.55,-12.07,-12.07,0,*51
1489619167.99,4006,9.81,73350.3,-11.57,-12.11,-12.11,0,*50
1489619169.22,4007,9.81,73374.3,-11.57,-12.03,-12.11,0,*52
1489619170.45,4008,9.81,73368.5,-11.57,-12.03,-12.11,0,*5D
1489619171.69,4009,9.81,73340.8,-11.57,-12.03,-12.11,0,*5C
1489619172.94,4010,9.81,73302.0,-11.57,-11.97,-12.11,0,*5A
1489619174.17,4011,9.81,73288.5,-11.57,-12.03,-11.97,0,*58
1489619175.47,4012,9.81,73268.3,-11.55,-11.93,-11.93,0,*57
1489619176.7,4013,9.81,73268.8,-11.57,-12.11,-12.03,0,*57
1489619177.93,4014,9.81,73308.3,-11.57,-12.03,-11.97,0,*5D
1489619179.14,4015,9.81,73312.3,-11.57,-12.03,-12.03,0,*52
1489619180.43,4016,9.81,73322.0,-11.55,-11.97,-11.93,0,*57
1489619181.66,4017,9.81,73330.5,-11.57,-11.97,-12.03,0,*5E
1489619182.96,4018,9.81,73310.5,-11.55,-11.93,-11.93,0,*5D
1489619184.24,4019,9.81,73298.3,-11.55,-11.85,-11.97,0,*5F
1489619185.53,4020,9.81,73314.8,-11.55,-11.93,-11.97,0,*52
1489619186.77,4021,9.81,73296.0,-11.57,-11.97,-12.03,0,*5B
1489619188.06,4022,9.81,73334.3,-11.55,-11.93,-11.97,0,*50
1489619189.34,4023,9.81,73356.0,-11.55,-11.97,-12.07,0,*5F
1489619190.61,4024,9.81,73358.0,-11.55,-11.85,-12.21,0,*5F
1489619191.87,4025,9.81,73350.0,-11.55,-11.97,-12.25,0,*59
1489619193.12,4026,9.81,73346.3,-11.55,-11.97,-12.25,0,*5A
1489619194.41,4027,9.81,73352.5,-11.55,-12.07,-12.07,0,*51
1489619195.7,4028,9.81,73356.0,-11.55,-12.07,-12.11,0,*59
1489619196.98,4029,9.81,73354.8,-11.51,-11.97,-12.07,0,*51
1489619198.24,4030,9.81,73356.5,-11.49,-11.97,-12.07,0,*50
1489619199.52,4031,9.81,73352.8,-11.51,-11.97,-12.11,0,*5F
1489619200.79,4032,9.81,73356.8,-11.51,-11.93,-12.21,0,*5B
1489619202.05,4033,9.81,73352.5,-11.51,-11.97,-12.21,0,*5E
1489619203.31,4034,9.81,73350.0,-11.51,-11.97,-12.39,0,*50
1489619204.56,4035,9.81,73346.8,-11.51,-12.11,-12.39,0,*5C
1489619205.82,4036,9.81,73340.8,-11.51,-12.11,-12.43,0,*52
1489619207.08,4037,9.81,73350.0,-11.51,-12.11,-12.43,0,*53
1489619208.35,4038,9.81,73346.8,-11.51,-12.21,-12.53,0,*5E
1489619209.61,4039,9.81,73358.8,-11.51,-12.21,-12.53,0,*5F
1489619210.88,4040,9.81,73332.3,-11.51,-12.21,-12.53,0,*51
1489619212.12,4041,9.81,73340.5,-11.51,-12.25,-12.43,0,*55
1489619213.33,4042,9.81,73332.3,-11.49,-12.21,-12.39,0,*56
1489619214.56,4043,9.81,73336.0,-11.49,-12.15,-12.47,0,*59
1489619215.83,4044,9.81,73344.0,-11.51,-12.25,-12.53,0,*51
1489619217.09,4045,9.81,73348.5,-11.51,-12.25,-12.57,0,*54
1489619218.34,4046,9.81,73344.0,-11.55,-12.39,-12.65,0,*5F
1489619219.62,4047,9.81,73340.5,-11.55,-12.35,-12.57,0,*53
1489619220.89,4048,9.81,73326.0,-11.55,-12.25,-12.57,0,*5D
1489619222.17,4049,9.81,73328.3,-11.51,-12.35,-12.57,0,*59
1489619223.45,4050,9.81,73326.5,-11.51,-12.35,-12.57,0,*51
1489619224.73,4051,9.81,73348.0,-11.51,-12.35,-12.65,0,*51
1489619226.01,4052,9.81,73368.5,-11.51,-12.35,-12.57,0,*53
1489619227.3,4053,9.81,73362.0,-11.55,-12.35,-12.57,0,*56
1489619228.56,4054,9.81,73374.0,-11.55,-12.39,-12.57,0,*5D
1489619229.81,4055,9.81,73374.5,-11.55,-12.39,-12.65,0,*5D
1489619231.07,4056,9.81,73352.0,-11.55,-12.39,-12.79,0,*53
1489619232.33,4057,9.81,73348.0,-11.55,-12.39,-12.71,0,*5A
1489619233.6,4058,9.81,73338.3,-11.55,-12.39,-12.71,0,*55
1489619234.86,4059,9.81,73342.5,-11.55,-12.39,-12.71,0,*54
1489619236.1,4060,9.81,73340.0,-11.57,-12.47,-12.71,0,*55
1489619237.33,4061,9.81,73346.8,-11.57,-12.47,-12.57,0,*50
1489619238.54,4062,9.81,73346.8,-11.57,-12.47,-12.47,0,*52
1489619239.78,4063,9.81,73352.8,-11.55,-12.43,-12.43,0,*51
1489619240.98,4064,9.81,73340.0,-11.57,-12.47,-12.47,0,*54
1489619242.22,4065,9.81,73348.0,-11.55,-12.43,-12.43,0,*57
1489619243.43,4066,9.81,73342.5,-11.57,-12.47,-12.47,0,*56
1489619244.63,4067,9.81,73326.5,-11.57,-12.47,-12.47,0,*57
1489619245.87,4068,9.81,73354.0,-11.55,-12.39,-12.43,0,*57
1489619247.13,4069,9.81,73352.3,-11.55,-12.35,-12.43,0,*5A
1489619248.39,4070,9.81,73302.3,-11.55,-12.35,-12.39,0,*5F
1489619249.6,4071,9.81,73354.8,-11.57,-12.39,-12.43,0,*5D
1489619250.8,4072,9.81,73346.0,-11.57,-12.39,-12.39,0,*53
1489619252.01,4073,9.81,73344.0,-11.57,-12.39,-12.43,0,*5F
1489619253.22,4074,9.81,73360.8,-11.57,-12.29,-12.43,0,*59
1489619254.43,4075,9.81,73364.3,-11.57,-12.29,-12.43,0,*58
1489619255.64,4076,9.81,73376.3,-11.57,-12.25,-12.39,0,*5A
1489619256.86,4077,9.81,73374.0,-11.57,-12.29,-12.39,0,*57
1489619258.1,4078,9.81,73368.5,-11.55,-12.21,-12.21,0,*5B
1489619259.35,4079,9.81,73372.8,-11.55,-12.21,-12.21,0,*5A
1489619260.6,4080,9.81,73370.8,-11.57,-12.15,-12.15,0,*5E
1489619261.84,4081,9.81,73372.3,-11.57,-12.15,-12.25,0,*5C
1489619263.07,4082,9.81,73362.8,-11.57,-12.03,-12.11,0,*5F
1489619264.35,4083,9.81,73354.3,-11.55,-12.11,-12.11,0,*5F
1489619265.64,4084,9.81,73322.3,-11.55,-12.07,-12.07,0,*58
1489619266.9,4085,9.81,73294.0,-11.57,-12.11,-12.11,0,*5B
1489619268.16,4086,9.81,73310.8,-11.57,-12.11,-12.11,0,*58
1489619269.45,4087,9.81,73316.3,-11.55,-11.97,-12.07,0,*51
1489619270.74,4088,9.81,73348.0,-11.55,-11.97,-12.07,0,*5E
1489619272.02,4089,9.81,73330.8,-11.55,-11.97,-12.07,0,*5F
1489619273.31,4090,9.81,73294.0,-11.51,-12.07,-12.07,0,*59
1489619274.59,4091,9.81,73334.0,-11.55,-11.97,-12.07,0,*56
1489619275.88,4092,9.81,73356.5,-11.55,-11.97,-12.07,0,*55
1489619277.16,4093,9.81,73362.8,-11.55,-11.97,-11.97,0,*5E
1489619278.45,4094,9.81,73352.0,-11.55,-11.93,-11.97,0,*5D
1489619279.75,4095,9.81,73352.3,-11.55,-11.93,-11.93,0,*58
1489619281.04,4096,9.81,73372.8,-11.55,-11.93,-11.93,0,*5B
1489619282.33,4097,9.81,73320.3,-11.55,-11.93,-11.93,0,*5A
1489619283.63,4098,9.81,73340.8,-11.51,-11.93,-11.93,0,*51
1489619284.91,4099,9.81,73344.8,-11.51,-11.93,-11.97,0,*54
1489619286.2,4100,9.81,73342.3,-11.51,-11.93,-12.11,0,*58
1489619287.49,4101,9.81,73362.0,-11.51,-11.93,-12.11,0,*59
1489619288.75,4102,9.81,73362.8,-11.51,-12.07,-12.21,0,*57
1489619290.01,4103,9.81,73364.0,-11.51,-12.11,-12.39,0,*58
1489619291.27,4104,9.81,73362.0,-11.51,-12.11,-12.39,0,*5F
1489619292.53,4105,9.81,73356.5,-11.51,-12.11,-12.39,0,*5E
1489619293.77,4106,9.81,73356.8,-11.51,-12.25,-12.39,0,*5A
1489619295.0,4107,9.81,73354.3,-11.51,-12.25,-12.39,0,*5B
1489619296.27,4108,9.81,73352.0,-11.51,-12.21,-12.35,0,*5C
1489619297.51,4109,9.81,73354.5,-11.51,-12.21,-12.25,0,*5C
1489619298.76,4110,9.81,73364.8,-11.49,-12.07,-12.15,0,*5A
1489619300.03,4111,9.81,73358.8,-11.51,-12.11,-12.21,0,*52
1489619301.29,4112,9.81,73370.3,-11.51,-12.07,-12.21,0,*56
1489619302.55,4113,9.81,73360.3,-11.51,-12.11,-12.21,0,*50
1489619303.81,4114,9.81,73330.0,-11.51,-12.11,-12.25,0,*53
1489619305.07,4115,9.81,73350.8,-11.51,-12.07,-12.21,0,*51
1489619306.33,4116,9.81,73360.0,-11.51,-12.07,-12.21,0,*52
1489619307.59,4117,9.81,73322.3,-11.51,-12.07,-12.21,0,*53
1489619308.85,4118,9.81,73356.3,-11.49,-12.07,-12.15,0,*52